[[{"header":{"parameterUnit":"m.s-1","parameterCategory":1,"la1":30.2991,"la2":30.254,"lo1":-89.0895,"lo2":-89.0444,"dy":0.0017,"dx":0.0017,"nx":28,"ny":28,"refTime":"2023-04-28T21:00:00:Z","depth":0,"parameterNumber":2,"parameterNumberName":"U-component_of_WINDS"},"data":[0,0,0,0,0,0,0,0,0,0,0,0,0,0,0,0,0,0,0,0,0,0,0,0,0,0,0,0,0,0,0,0,0,0,0,0,0,0,0,0,0,0,0,0,0,0,0,0,0,0,0,0,0,0,0,0,0,0,0.5843,0.5843,0,0.591,0.5911,0.5911,0.5922,0.5921,0.592,0.592,0.599,0.5992,0.5994,0,0,0,0,0,0,0,0,0,0,0,0,0,0.5723,0.5725,0.5843,0.5844,0.5844,0.591,0.5911,0.5912,0.5922,0.5921,0.592,0.5919,0.5989,0.5992,0.5995,0,0,0,0,0,0,0,0,0,0,0,0,0,0.5781,0.5726,0.5843,0.5857,0.5859,0.591,0.5911,0.5912,0.5922,0.5921,0.592,0.5919,0.5988,0.5991,0.5995,0.6036,0,0,0.6006,0.6008,0,0,0,0,0,0,0,0,0.5778,0.5786,0.5854,0.5856,0.5859,0.5906,0.5894,0.5953,0.5922,0.5898,0.592,0.5919,0.5963,0.5968,0.5983,0.6039,0.6042,0.6007,0.6009,0.601,0.6011,0,0,0,0,0,0,0,0.5774,0.5783,0.5869,0.5855,0.5858,0.5861,0.5868,0.5906,0.5935,0.59,0.5901,0.5909,0.5964,0.598,0.5985,0.6043,0.6006,0.601,0.6012,0.6013,0.6134,0.6135,0,0,0,0,0,0,0.5767,0.5779,0.5867,0.5871,0.5815,0.5863,0.5872,0.5892,0.5934,0.594,0.5909,0.5909,0.5974,0.5981,0.5987,0.6037,0.601,0.6014,0.6016,0.6133,0.6135,0.6136,0,0,0,0,0,0,0.5765,0.5775,0.5864,0.5826,0.5837,0.5866,0.5889,0.5894,0.5909,0.5941,0.5947,0.592,0.5973,0.5982,0.6023,0.6039,0.6015,0.6019,0.6132,0.6134,0.6135,0.6136,0,0,0,0,0,0,0.5761,0.5774,0.579,0.5826,0.5839,0.5899,0.589,0.5896,0.5916,0.5916,0.5953,0.5958,0.5973,0.6018,0.6027,0.6044,0.6021,0.6131,0.6133,0.6135,0.6135,0.6138,0.614,0,0,0,0,0,0.5757,0.5788,0.579,0.5801,0.586,0.59,0.5908,0.5924,0.5917,0.5933,0.5953,0.5957,0.6036,0.6022,0.6032,0.605,0.613,0.6132,0.6135,0.6134,0.6137,0.614,0,0,0,0,0,0,0.5753,0.5793,0.5796,0.584,0.5866,0.5902,0.5922,0.5927,0.5957,0.5956,0.5975,0.5984,0.6023,0.6041,0.6025,0.6091,0.6082,0.6087,0.6078,0.6082,0.6084,0.6079,0.6025,0,0,0,0,0,0.5757,0.5787,0.582,0.5855,0.5868,0.5893,0.5911,0.5922,0.595,0.5962,0.5985,0.6013,0.6044,0.6064,0.6094,0.6138,0.6145,0.6155,0.6158,0.616,0.6163,0.6186,0.6191,0.6143,0.6143,0.6143,0,0,0.5766,0.5792,0.5809,0.5855,0.5877,0.5907,0.5903,0.5935,0.5957,0.5967,0.6006,0.6025,0.6057,0.6099,0.6118,0.6115,0.6178,0.6163,0.6164,0.6166,0.6189,0.6193,0.6197,0.6145,0.6145,0.6145,0,0,0.5798,0.582,0.5852,0.5873,0.5906,0.5922,0.593,0.5964,0.5976,0.6017,0.6024,0.6051,0.6105,0.6127,0.6145,0.6184,0.6188,0.6194,0.6206,0.6229,0.6232,0.6236,0.6249,0.6253,0.6197,0.6197,0.6197,0,0.5805,0.585,0.5867,0.5899,0.5918,0.5928,0.5959,0.598,0.6021,0.6034,0.603,0.6096,0.6118,0.6165,0.6174,0.6189,0.6198,0.6189,0.623,0.6234,0.6237,0.625,0.6255,0.6197,0.6197,0.6197,0.6197,0,0.5857,0.5888,0.5909,0.5948,0.597,0.6002,0.6023,0.6044,0.6052,0.6068,0.6108,0.6136,0.6171,0.6183,0.6192,0.6231,0.6227,0.6226,0.6218,0.6242,0.6254,0.6259,0.6198,0.6198,0.6198,0.6198,0,0,0.5888,0.5935,0.5942,0.596,0.5996,0.6021,0.6053,0.6087,0.6103,0.6131,0.6158,0.6202,0.6201,0.6222,0.6233,0.6253,0.628,0.6249,0.625,0.6253,0.6324,0.6323,0.6329,0.6284,0.6285,0.6286,0.6321,0,0.5923,0.5979,0.5995,0.6042,0.6071,0.608,0.6107,0.6133,0.6149,0.6175,0.6193,0.6224,0.6221,0.6233,0.6253,0.6273,0.6295,0.6271,0.6308,0.6309,0.6299,0.6335,0.6335,0.6367,0.6326,0.6326,0.6327,0,0.5971,0.5999,0.6049,0.6081,0.6094,0.6118,0.615,0.6176,0.6204,0.6215,0.6237,0.6247,0.628,0.6269,0.6315,0.6298,0.6314,0.6326,0.6328,0.6331,0.6319,0.6339,0.6378,0.6382,0.6335,0.6334,0.6334,0,0.5987,0.6038,0.6074,0.6089,0.6127,0.6144,0.6161,0.6189,0.6208,0.6236,0.6248,0.628,0.6298,0.6322,0.6339,0.633,0.6383,0.6374,0.6392,0.6391,0.6402,0.6401,0.6443,0.6414,0.6414,0.6414,0.6413,0,0.6024,0.6054,0.6081,0.6104,0.6137,0.6155,0.6188,0.6205,0.623,0.6255,0.6266,0.6289,0.6311,0.6338,0.6352,0.6387,0.6395,0.6404,0.6407,0.6402,0.6401,0.6412,0.641,0.6415,0.6415,0.6414,0.6414,0,0.6047,0.6067,0.6107,0.614,0.6149,0.6172,0.62,0.6222,0.6238,0.627,0.6279,0.6305,0.6336,0.6356,0.6397,0.6406,0.6444,0.6447,0.6434,0.6435,0.6451,0.6449,0.6502,0.6509,0.6476,0.6476,0.6476,0,0.6069,0.6092,0.6127,0.6145,0.6162,0.619,0.621,0.6228,0.6248,0.6282,0.6299,0.6331,0.6358,0.6408,0.643,0.6461,0.6464,0.6481,0.6469,0.6463,0.6463,0.6461,0.6463,0.6482,0.6483,0.6483,0.6483,0,0.6105,0.6113,0.6141,0.6172,0.6194,0.622,0.6245,0.6259,0.6281,0.6303,0.6335,0.6355,0.6396,0.6428,0.646,0.6478,0.6484,0.6487,0.6492,0.6487,0.6478,0.6482,0.6438,0.6485,0.6485,0.6485,0.6485,0.6485,0.6127,0.6148,0.6176,0.6206,0.6227,0.625,0.6271,0.629,0.6317,0.6351,0.6361,0.6394,0.6421,0.6466,0.6484,0.651,0.6508,0.6516,0.6518,0.6519,0.6519,0.6474,0.6516,0.6516,0.6516,0.6516,0.6516,0,0.6163,0.6181,0.6209,0.6243,0.6267,0.627,0.6298,0.6317,0.6346,0.6371,0.6397,0.6434,0.6464,0.6488,0.652,0.6536,0.6539,0.6543,0.6542,0.6545,0.652,0.6511,0.654,0.654,0.654,0.654,0.654,0.654,0.6184,0.6219,0.623,0.6275,0.6293,0.6326,0.6341,0.6362,0.6382,0.6422,0.6447,0.6463,0.6487,0.652,0.6548,0.6554,0.6565,0.6568,0.6575,0.655,0.6547,0.6545,0.6537,0.6571,0.6571,0.6599,0.6599,0.6599]},{"header":{"parameterUnit":"m.s-1","parameterCategory":1,"la1":30.2991,"la2":30.254,"lo1":-89.0895,"lo2":-89.0444,"dy":0.0017,"dx":0.0017,"nx":28,"ny":28,"refTime":"2023-04-28T21:00:00:Z","depth":0,"parameterNumber":3,"parameterNumberName":"V-component_of_WINDS"},"data":[0,0,0,0,0,0,0,0,0,0,0,0,0,0,0,0,0,0,0,0,0,0,0,0,0,0,0,0,0,0,0,0,0,0,0,0,0,0,0,0,0,0,0,0,0,0,0,0,0,0,0,0,0,0,0,0,0,0,3.6511,3.6512,0,3.6547,3.6547,3.6548,3.651,3.6508,3.6507,3.6505,3.6539,3.6541,3.6543,0,0,0,0,0,0,0,0,0,0,0,0,0,3.6404,3.6407,3.6511,3.6512,3.6512,3.6547,3.6547,3.6548,3.651,3.6508,3.6506,3.6505,3.6538,3.6541,3.6543,0,0,0,0,0,0,0,0,0,0,0,0,0,3.6446,3.6407,3.6511,3.6497,3.6497,3.6547,3.6547,3.6548,3.651,3.6508,3.6506,3.6504,3.6537,3.654,3.6544,3.6608,0,0,3.6554,3.6555,0,0,0,0,0,0,0,0,3.6444,3.645,3.6499,3.6498,3.6498,3.6522,3.6522,3.6568,3.6511,3.6505,3.6505,3.6503,3.6535,3.6538,3.6549,3.661,3.6611,3.6554,3.6556,3.6558,3.6559,0,0,0,0,0,0,0,3.6441,3.6449,3.6525,3.65,3.6499,3.6488,3.6491,3.653,3.6531,3.6505,3.6503,3.6508,3.6534,3.6546,3.655,3.6611,3.6554,3.6557,3.6559,3.656,3.6722,3.6724,0,0,0,0,0,0,3.644,3.6446,3.6524,3.6526,3.6465,3.6491,3.6495,3.6516,3.6531,3.6531,3.6509,3.6506,3.6542,3.6546,3.6551,3.6624,3.6558,3.6561,3.6563,3.672,3.6722,3.6725,0,0,0,0,0,0,3.6438,3.6448,3.6523,3.6486,3.6494,3.6495,3.6519,3.6518,3.653,3.6534,3.6534,3.6522,3.654,3.6546,3.6593,3.6625,3.6562,3.6565,3.6717,3.672,3.6724,3.6774,0,0,0,0,0,0,3.6435,3.6447,3.6473,3.6487,3.6496,3.6566,3.6521,3.652,3.6537,3.6532,3.6546,3.6546,3.6539,3.6589,3.6597,3.6628,3.6568,3.6714,3.6718,3.6722,3.6769,3.6778,3.6786,0,0,0,0,0,3.6432,3.6486,3.6475,3.6485,3.6529,3.6568,3.6574,3.6565,3.654,3.6564,3.6566,3.6546,3.6621,3.6594,3.6603,3.6636,3.6712,3.6717,3.6722,3.6765,3.6776,3.6786,0,0,0,0,0,0,3.6477,3.6488,3.6475,3.6536,3.6552,3.6562,3.6593,3.6578,3.66,3.6595,3.6582,3.6585,3.6635,3.664,3.661,3.6697,3.6662,3.6669,3.6691,3.6702,3.6711,3.6707,3.6571,0,0,0,0,0,3.6494,3.6526,3.6533,3.6586,3.6594,3.6593,3.6609,3.6601,3.6616,3.6622,3.6627,3.6642,3.6668,3.6686,3.671,3.677,3.677,3.6797,3.6805,3.6812,3.6818,3.6846,3.6857,3.6742,3.6741,3.6741,0,0,3.6529,3.6539,3.656,3.6595,3.6606,3.6637,3.6598,3.6634,3.6656,3.6627,3.6671,3.6676,3.669,3.6743,3.6767,3.6749,3.685,3.6819,3.6824,3.6826,3.6853,3.6864,3.6874,3.6745,3.6744,3.6744,0,0,3.6609,3.6621,3.6665,3.6676,3.6693,3.6691,3.6701,3.6713,3.6715,3.6759,3.6737,3.6763,3.6809,3.682,3.6831,3.6911,3.6892,3.692,3.6964,3.6992,3.7001,3.7009,3.7034,3.7044,3.6926,3.6926,3.6926,0,3.665,3.6698,3.6689,3.6725,3.6739,3.6715,3.6756,3.6768,3.6792,3.6801,3.6782,3.6837,3.6846,3.6899,3.6918,3.6929,3.6938,3.6918,3.7,3.7008,3.7015,3.704,3.705,3.6929,3.6929,3.6928,3.6928,0,3.6746,3.678,3.6812,3.6836,3.6854,3.6893,3.6887,3.6907,3.6896,3.6895,3.6939,3.6948,3.6972,3.6984,3.6975,3.7035,3.7024,3.7003,3.6967,3.703,3.7052,3.7062,3.6933,3.6932,3.6931,3.693,0,0,3.6857,3.6872,3.6884,3.6893,3.6908,3.6933,3.6969,3.6993,3.7009,3.7026,3.7054,3.7093,3.7072,3.7085,3.7076,3.7101,3.716,3.7076,3.7076,3.7089,3.7224,3.7238,3.7249,3.7148,3.715,3.7151,3.7221,0,3.6935,3.6999,3.699,3.7051,3.7079,3.7054,3.7085,3.7097,3.7097,3.7119,3.7118,3.7145,3.7118,3.7125,3.7148,3.7148,3.7186,3.7143,3.7172,3.7173,3.7167,3.7262,3.7277,3.7343,3.7231,3.7232,3.7233,0,3.7035,3.7054,3.7118,3.7125,3.7137,3.7165,3.7185,3.7208,3.7219,3.7217,3.723,3.7216,3.725,3.7214,3.7259,3.723,3.7241,3.7242,3.7245,3.7245,3.7206,3.7263,3.7365,3.7374,3.7248,3.7246,3.7245,0,3.7105,3.7147,3.719,3.7198,3.7209,3.7229,3.7234,3.7244,3.7257,3.7274,3.7282,3.7303,3.7314,3.7329,3.732,3.7296,3.7366,3.733,3.7363,3.7363,3.7377,3.7376,3.748,3.7388,3.7388,3.7388,3.7388,0,3.7192,3.7231,3.7221,3.7247,3.7289,3.7277,3.7318,3.732,3.7328,3.7352,3.7333,3.7356,3.7343,3.7364,3.7357,3.7394,3.74,3.7397,3.7394,3.7398,3.7398,3.7404,3.7398,3.739,3.739,3.7389,3.7389,0,3.7277,3.7273,3.7316,3.7322,3.7325,3.7355,3.7359,3.7382,3.738,3.741,3.7417,3.7412,3.7436,3.7429,3.7455,3.745,3.7495,3.7488,3.7492,3.7489,3.7521,3.7517,3.7631,3.7644,3.7545,3.7546,3.7547,0,3.7332,3.7361,3.737,3.7384,3.7391,3.7416,3.7429,3.7418,3.7432,3.7446,3.7467,3.7489,3.7506,3.7545,3.7543,3.7562,3.7553,3.7592,3.7556,3.7557,3.7551,3.7548,3.755,3.7598,3.76,3.7601,3.7601,0,3.7429,3.7424,3.7445,3.7464,3.7481,3.7495,3.7508,3.7521,3.751,3.7527,3.7551,3.7564,3.759,3.7611,3.7628,3.7631,3.7614,3.7613,3.7621,3.7624,3.7623,3.7621,3.7509,3.761,3.7609,3.7608,3.7608,3.7608,3.7499,3.7522,3.7531,3.7554,3.7562,3.7573,3.7594,3.7593,3.7613,3.7633,3.7625,3.7652,3.766,3.768,3.7686,3.7706,3.7691,3.7703,3.7706,3.7709,3.7711,3.7622,3.7709,3.7709,3.7709,3.7708,3.7708,0,3.7592,3.7596,3.7617,3.7634,3.7652,3.7634,3.7646,3.7661,3.7685,3.7694,3.7711,3.7737,3.7757,3.7756,3.7774,3.779,3.7782,3.7795,3.7792,3.7793,3.7725,3.7715,3.78,3.78,3.78,3.78,3.78,3.78,3.7643,3.768,3.7676,3.7716,3.7719,3.7746,3.7754,3.7763,3.777,3.78,3.7816,3.7815,3.782,3.7837,3.7854,3.7853,3.786,3.7875,3.7871,3.7807,3.7798,3.7789,3.778,3.7877,3.7877,3.7936,3.7937,3.7937]}]]